This is the latest recevied weather packets stored in our database for station/object W7BL. If no packets are shown the sender has not sent any weather packets the latest 10 day(s).
| Time | Temp. | Humidity | Pressure | Rain* | Wind** | Luminosity | Snow |
|---|---|---|---|---|---|---|---|
| 1778020158 | 23.89° C | 32% | - | 0 mm | - | - | - |
| 1778019854 | 23.89° C | 30% | - | 0 mm | - | - | - |
| 1778019550 | 24.44° C | 30% | - | 0 mm | - | - | - |
| 1778019247 | 23.89° C | 32% | - | 0 mm | - | - | - |
| 1778018944 | 23.89° C | 32% | - | 0 mm | - | - | - |
| 1778018641 | 23.89° C | 33% | - | 0 mm | - | - | - |
| 1778018339 | 23.89° C | 32% | - | 0 mm | - | - | - |
| 1778018037 | 24.44° C | 32% | - | 0 mm | - | - | - |
| 1778017735 | 23.89° C | 30% | - | 0 mm | - | - | - |
| 1778017432 | 23.89° C | 33% | - | 0 mm | - | - | - |
| 1778017129 | 23.89° C | 32% | - | 0 mm | - | - | - |
| 1778016827 | 23.89° C | 31% | - | 0 mm | - | - | - |
| 1778016523 | 24.44° C | 31% | - | 0 mm | - | - | - |
| 1778016220 | 25° C | 31% | - | 0 mm | - | - | - |
| 1778015916 | 23.33° C | 33% | - | 0 mm | - | - | - |
| 1778015614 | 23.89° C | 33% | - | 0 mm | - | - | - |
| 1778015310 | 23.89° C | 33% | - | 0 mm | - | - | - |
| 1778015007 | 23.33° C | 32% | - | 0 mm | - | - | - |
| 1778014704 | 22.78° C | 33% | - | 0 mm | - | - | - |
| 1778014402 | 22.78° C | 32% | - | 0 mm | - | - | - |
| 1778014098 | 22.78° C | 33% | - | 0 mm | - | - | - |
| 1778013797 | 23.89° C | 33% | - | 0 mm | - | - | - |
| 1778013494 | 23.33° C | 32% | - | 0 mm | - | - | - |
| 1778013190 | 23.33° C | 32% | - | 0 mm | - | - | - |
| 1778012886 | 23.33° C | 37% | - | 0 mm | - | - | - |
* Rain latest hour (hover to see other rain measurements)
** Current wind speed in m/s (hover to see current wind gust speed)